SCP
0 0 0 0 0 0 0 0 0 0 0 0 0 0 0 0 0 0 0 0 0 0 0 -0 -0 -0 -0 -0 -0 -0 -0 0 0 0 0 0 0 0 0 0 0 0 0 0
0 0 0 0 0 0 0 0 0 0 0 0 0 0 -0 0 0 0 0 0 0 0 0 0 0 -0 -0 -0 -0 -0 -0 -0 -0 -0 -0 -0 0 0 0 0 0 0 0 0
0 0 0 0 0 0 0 0 0 0 0 0 0 0 0 0 0 0 0 0 0 0 0 0 0 0 0 -0 -0 -0 -0 -0 -0 -0 -0 -0 -0 -0 0 0 0 0 0 0
0 0 0 0 0 0 0 0 0 0 0 0 0 0 0 0 0 0 0 0 0 0 0 0 0 0 0 0 0 -0 -0 -0 -0 -0 -0 -0 -0 -0 -0 0 0 0 0 0
0 0 0 0 0 0 0 0 0 0 0 0 0 0 0 0 0 0 0 0 0 0 0 0 0 0 0 0 0 0 0 -0 -0 -0 -0 -0 -0 -0 -0 -0 0 0 0 0
0 0 0 0 0 0 0 0 0 0 0 0 0 0 0 0 0 0 0 0 0 0 0 0 0 0 0 0 0 0 0 0 -0 -0 -0 -0 -0 -0 -0 -0 -0 -0 -0 -0
0 0 0 0 0 0 0 0 0 0 0 0 0 0 0 0 0 0 0 0 0 0 0 0 0 0 0 0 0 0 0 0 0 0 -0 -0 -0 -0 -0 -0 -0 -0 -0 -0
0 0 0 0 0 0 0 0 0 0 0 0 0 0 0 0 0 0 0 0 0 0 0 0 0 0 0 0 0 0 0 0 0 0 0 0 -0 -0 0 0 0 -0 -0 -0
0 0 0 0 0 0 0 0 0 0 0 0 0 0 0 0 0 0 0 0 0 0 0 0 0 0 0 0 0 0 0 0 0 0 0 0 0 0 0 0 0 0 0 0
0 0 0 0 0 0 0 0 0 0 0 0 0 0 0 0 0 0 0 0 0 0 0 0 0 0 0 0 0 0 0 0 0 0 0 0 0 0 0 0 0 0 0 0
0 0 0 0 0 0 0 0 0 0 0 0 0 0 0 0 0 0 0 0 0 0 0 0 0 0 0 0 0 0 0 0 0 0 0 0 0 0 0 0 0 0 0 0
0 0 0 0 0 0 0 0 0 0 0 0 0 0 0 0 0 0 0 0 0 0 0 0 0 0 0 0 0 0 0 0 0 0 0 0 0 0 0 0 0 0 0 0
0 0 0 0 0 0 0 0 0 0 0 0 0 0 0 0 0 0 0 0 0 0 0 0 0 0 0 0 0 0 0 0 0 0 0 0 0 0 0 0 0 0 0 0
0 0 0 0 0 0 0 0 0 0 0 0 0 0 0 0 0 0 0 0 0 0 0 0 0 0 0 0 0 0 0 0 0 0 0 0 0 0 0 0 0 0 0 0
0 0 0 0 0 0 0 0 0 0 0 0 0 0 0 0 0 0 0 0 0 0 0 0 0 0 0 0 0 0 0 0 0 0 0 0 0 0 0 0 0 0 0 0
0 0 0 0 0 0 0 0 0 0 0 0 0 0 0 0 0 0 0 0 0 0 0 0 0 0 0 0 0 0 0 0 0 0 0 0 0 0 0 0 0 0 0 0
0 0 0 0 0 0 0 0 0 0 0 0 0 0 0 0 0 0 0 0 0 0 0 0 0 0 0 0 0 0 0 0 0 0 0 0 0 0 0 0 0 0 0 0
0 0 0 0 0 0 0 0 0 0 0 0 0 0 0 0 0 0 0 0 0 0 0 0 0 0 0 0 0 0 0 0 0 0 0 0 0 0 0 0 0 0 0 0
0 0 0 0 0 0 0 0 0 0 0 0 0 0 0 0 0 0 0 0 0 0 0 0 0 0 0 0 0 0 0 0 0 0 0 0 0 0 0 0 0 0 0 0
0 0 0 0 0 0 0 0 0 0 0 0 0 0 0 0 0 0 0 0 0 0 0 0 0 0 0 0 0 0 0 0 0 0 0 0 0 0 0 0 0 0 0 0
0 0 0 0 0 0 0 0 0 0 0 0 0 0 0 0 0 0 0 0 0 0 0 0 0 0 0 0 0 0 0 0 0 0 0 0 0 0 0 0 0 0 0 0
0 0 0 0 0 0 0 0 0 0 0 0 0 0 0 0 0 0 0 0 0 0 0 0 0 0 0 0 0 0 0 0 0 0 0 0 0 0 0 0 0 0 0 0
0 0 0 0 0 0 0 0 0 0 0 0 0 0 0 0 0 0 0 0 0 0 0 0 0 0 0 0 0 0 0 0 0 0 0 0 0 0 0 0 0 0 0 0
0 0 0 0 0 0 0 0 0 0 0 0 0 0 0 0 0 0 0 0 0 0 0 0 0 0 0 0 0 0 0 0 0 0 0 0 0 0 0 0 0 0 0 0
0 0 0 0 0 0 0 0 0 0 0 0 0 0 0 0 0 0 0 0 0 0 0 0 0 0 0 0 0 0 0 0 0 0 0 0 0 0 0 0 0 0 0 0
0 0 0 0 0 0 0 0 0 0 0 0 0 0 0 0 0 0 0 0 0 0 0 0 0 0 0 0 0 0 0 0 0 0 0 0 0 0 0 0 0 0 0 0
Wind_Speed_500mb
14 14 7 4 2 1 7 9 11 6 2 3 6 10 16 29 15 13 5 6 11 15 18 23 29 35 40 45 47 51 53 54 55 59 65 66 69 65 59 57 54 52 50 49
14 8 4 8 1 11 12 13 5 2 6 2 1 13 14 30 24 20 12 6 2 11 18 23 30 36 43 47 49 51 54 57 60 62 62 62 65 67 67 61 61 60 57 55
10 9 4 5 10 10 10 10 2 2 7 5 3 9 10 16 29 29 18 13 2 12 17 20 26 32 36 44 49 51 53 55 57 60 61 63 64 66 69 74 71 66 65 62
13 4 3 10 8 2 7 1 2 2 6 2 5 7 9 14 16 23 28 20 10 11 14 17 22 26 32 36 39 42 47 52 56 60 62 66 69 72 73 74 73 73 67 66
4 3 4 9 4 2 8 5 5 3 3 5 5 6 14 18 16 20 36 30 18 13 13 16 22 26 29 31 36 39 41 45 49 52 57 61 64 66 67 70 72 75 75 71
6 4 6 3 2 4 8 8 6 5 5 4 10 10 9 13 23 10 36 36 23 14 11 15 21 25 29 29 31 33 37 41 45 48 52 55 58 61 66 71 76 78 79 80
2 4 2 3 7 3 7 8 6 7 6 8 3 2 18 16 10 23 40 42 27 17 12 15 21 26 30 32 33 33 35 38 42 45 48 51 53 54 58 63 68 72 77 81
10 7 1 3 3 10 5 10 9 13 6 4 5 12 12 9 17 34 43 34 25 18 17 17 23 28 35 37 35 35 35 38 41 43 44 47 49 50 52 54 57 61 66 71
9 2 2 9 4 3 4 3 7 12 5 7 8 14 11 8 7 19 27 28 27 22 23 21 22 28 35 39 37 36 34 37 40 42 44 46 48 48 49 50 53 56 59 64
7 8 2 1 3 4 6 7 7 5 4 7 8 10 12 14 19 16 24 37 30 25 26 24 28 32 37 40 39 38 37 37 39 41 45 47 48 48 48 48 50 53 57 62
6 6 2 7 9 12 2 1 4 5 8 10 4 12 12 15 24 25 36 42 33 30 34 28 32 33 37 40 40 41 41 41 40 42 46 49 49 48 47 48 49 52 55 60
7 9 6 11 2 4 6 11 9 8 10 6 4 14 8 8 15 36 32 37 37 35 34 34 33 31 34 35 36 43 46 45 44 44 48 51 51 49 47 49 52 54 56 59
8 3 5 9 9 9 3 8 7 8 6 10 11 11 2 8 14 30 28 15 18 25 33 33 30 30 25 29 37 45 53 53 48 47 51 52 51 49 48 51 52 55 59 62
7 5 11 12 9 9 5 6 10 12 7 7 20 8 11 12 14 13 11 22 34 33 26 26 27 24 23 29 37 47 54 57 52 49 54 55 52 50 49 51 53 56 61 67
8 7 3 7 8 5 12 10 17 21 25 18 18 29 15 11 19 29 39 28 19 21 25 29 29 27 27 34 43 52 53 55 53 52 56 54 52 53 51 51 54 57 61 65
6 2 5 9 5 14 15 20 22 38 40 40 43 60 21 50 53 49 22 17 20 21 26 29 35 36 39 46 61 57 51 50 52 54 58 56 57 57 53 53 56 59 64 68
10 9 6 10 11 13 19 27 41 16 11 43 29 38 10 16 13 13 17 25 34 38 40 44 49 45 41 56 56 54 45 49 56 61 60 59 61 57 54 56 58 61 66 70
12 10 6 6 7 4 12 9 14 39 29 34 20 19 11 13 10 26 32 32 35 36 37 38 40 40 54 57 52 49 49 56 61 62 59 61 59 56 56 57 59 62 67 71
13 8 1 6 7 17 17 7 12 15 17 37 41 38 38 37 28 27 21 22 20 26 34 41 44 57 62 52 52 51 55 59 63 62 58 59 58 57 57 58 60 64 69 72
10 8 8 5 9 15 11 6 13 9 12 16 46 30 25 16 1 9 23 23 35 39 46 52 61 65 58 55 50 54 58 61 67 62 56 57 57 55 56 58 61 64 69 72
8 4 25 10 9 20 23 13 14 10 14 8 35 28 25 11 21 27 29 36 42 45 51 53 58 62 60 57 57 61 62 65 60 56 54 54 54 53 53 57 61 67 71 69
19 21 11 9 7 22 26 16 13 13 13 27 31 21 22 32 32 33 36 42 45 49 52 53 60 63 60 58 63 64 61 59 57 54 53 52 50 50 52 58 62 65 64 65
8 18 14 26 19 11 60 17 46 17 36 24 23 30 28 36 38 36 44 49 51 59 61 60 59 62 56 59 60 58 58 56 51 47 46 44 45 48 54 59 61 59 55 54
13 31 6 7 13 34 43 57 53 38 40 44 46 50 49 45 41 43 48 52 62 66 68 67 63 62 61 59 57 57 55 49 45 42 40 42 47 50 52 52 51 52 49 49
12 21 11 12 19 33 35 41 54 60 56 57 48 39 35 33 41 46 53 58 65 68 71 74 68 64 62 58 59 58 51 45 42 42 42 45 49 51 48 45 43 44 41 42
22 15 12 20 23 33 23 22 15 12 16 23 29 34 35 35 43 49 61 72 74 77 75 65 62 60 58 60 61 56 47 43 42 43 44 47 48 44 42 43 38 30 37 39
Wind_Direction_500mb
36 68 96 109 348 49 96 95 113 124 227 39 191 177 194 180 178 153 153 86 65 29 7 7 8 11 19 23 21 19 17 17 14 12 9 8 11 14 12 7 0 351 340 328
31 104 216 301 330 69 47 112 58 65 165 169 237 259 234 188 190 186 193 165 91 352 4 8 10 12 16 17 21 22 21 19 18 17 16 14 12 11 14 12 7 2 356 345
114 167 219 111 53 83 42 102 103 201 318 226 309 287 194 203 184 197 204 176 227 332 348 355 5 11 13 13 14 15 17 18 19 17 14 12 12 12 8 8 11 8 1 358
92 243 190 104 88 329 112 324 130 39 44 186 109 258 248 192 197 199 209 195 223 293 325 337 349 0 7 10 8 9 11 12 14 14 15 15 15 12 10 8 5 7 6 358
210 111 53 77 127 3 151 153 114 53 50 38 219 103 265 157 214 217 212 194 214 268 306 323 332 342 351 359 3 3 4 5 8 9 10 10 11 10 7 6 5 4 5 5
105 42 55 109 140 75 130 109 71 53 64 15 218 157 259 186 212 182 193 188 202 240 278 303 318 328 335 345 353 357 359 359 0 2 4 4 5 4 3 4 4 3 2 2
33 39 64 66 89 34 61 86 24 5 6 224 70 64 247 223 201 172 173 180 196 217 246 277 309 318 327 333 340 347 352 355 355 356 357 359 359 0 1 2 1 0 359 0
150 299 74 21 93 162 129 149 156 194 200 233 334 235 257 223 125 170 178 179 197 214 230 280 313 317 321 326 328 334 341 349 351 351 351 351 352 355 357 357 357 359 358 357
124 123 52 49 45 77 232 182 169 99 54 51 225 287 316 77 110 151 172 190 209 218 236 282 309 309 309 317 320 323 330 340 344 345 346 344 345 347 350 351 351 352 353 354
187 86 9 170 76 43 140 185 83 2 122 260 274 276 238 209 211 201 203 210 221 231 245 273 297 308 314 315 320 318 321 326 334 339 340 339 337 339 342 344 346 347 348 348
134 97 167 53 203 178 109 145 36 119 152 180 243 255 217 213 201 200 212 217 229 236 237 271 293 297 309 310 314 318 317 314 320 327 333 333 331 331 334 337 340 342 343 343
210 131 150 221 140 37 164 197 158 132 237 233 149 271 267 175 191 195 210 224 237 230 254 279 283 287 300 307 312 319 317 308 310 317 325 326 325 324 326 330 333 337 339 340
215 304 50 338 351 357 188 207 185 127 102 214 149 255 197 145 144 160 172 197 238 253 267 269 268 286 298 310 307 308 308 308 306 310 318 319 319 318 319 324 328 332 335 337
118 91 167 190 191 127 192 248 196 134 134 203 228 245 252 211 201 183 187 283 277 275 276 269 273 279 296 309 306 305 302 301 302 304 314 315 314 313 314 318 323 327 331 334
105 184 134 267 232 186 206 189 201 205 209 195 244 236 214 214 217 226 304 293 281 283 277 268 266 276 288 310 318 313 305 297 297 302 310 309 309 309 309 312 316 321 325 329
5 234 88 305 283 226 255 217 219 228 233 250 260 275 263 269 271 275 272 274 285 280 266 253 261 271 288 309 318 318 309 294 293 299 306 304 304 305 305 308 313 317 321 325
135 129 91 265 339 318 288 214 207 211 208 223 234 247 246 275 260 239 261 273 282 282 275 270 274 275 293 310 314 312 307 297 295 300 300 299 301 302 303 306 310 315 319 322
136 116 107 230 10 293 255 178 176 213 238 222 253 244 196 208 220 286 282 279 284 284 280 278 277 279 299 308 307 305 296 291 297 299 298 298 300 300 301 304 309 313 317 320
143 119 108 161 201 302 289 167 156 165 267 222 226 242 240 257 283 269 281 283 295 302 300 294 285 288 300 297 303 296 293 297 299 300 300 297 297 297 299 303 307 313 315 318
161 88 135 103 174 228 238 235 160 131 287 236 205 228 218 177 212 250 307 285 296 296 296 290 291 294 292 295 300 292 293 297 296 297 295 292 293 295 298 302 308 312 315 317
148 212 216 203 235 281 248 192 154 94 246 175 183 201 193 181 240 290 289 287 284 285 291 292 290 290 289 290 292 289 294 294 296 291 289 288 291 293 296 302 308 312 315 317
172 172 190 161 196 273 172 127 188 218 178 157 160 180 233 255 272 271 277 288 293 292 297 298 294 289 290 286 289 292 293 296 291 288 286 288 290 292 297 302 308 310 312 314
234 197 181 189 206 225 183 210 219 215 181 188 229 262 277 268 272 288 293 297 294 299 299 303 294 293 287 286 288 287 293 290 288 283 284 286 289 294 299 304 307 309 313 315
245 201 216 131 227 232 227 233 240 228 243 263 276 283 283 272 282 293 294 294 296 297 300 303 300 289 288 290 285 286 289 285 281 280 283 287 291 295 299 302 306 309 315 316
193 144 184 271 281 278 265 250 250 258 274 275 275 273 278 283 286 293 295 294 294 296 296 296 295 289 286 287 282 285 283 280 277 279 284 288 291 297 301 304 309 311 313 316
197 182 201 245 234 242 246 273 235 224 227 244 259 265 264 277 286 292 291 293 295 296 296 292 287 285 284 284 281 279 277 273 274 281 287 292 295 299 305 307 306 304 308 311
Wind_Speed_850mb
14 14 7 4 2 1 7 9 11 6 2 3 6 10 16 29 15 13 5 6 11 15 18 23 29 35 40 45 47 51 53 54 55 59 65 66 69 65 59 57 54 52 50 49
14 8 4 8 1 11 12 13 5 2 6 2 1 13 14 30 24 20 12 6 2 11 18 23 30 36 43 47 49 51 54 57 60 62 62 62 65 67 67 61 61 60 57 55
10 9 4 5 10 10 10 10 2 2 7 5 3 9 10 16 29 29 18 13 2 12 17 20 26 32 36 44 49 51 53 55 57 60 61 63 64 66 69 74 71 66 65 62
13 4 3 10 8 2 7 1 2 2 6 2 5 7 9 14 16 23 28 20 10 11 14 17 22 26 32 36 39 42 47 52 56 60 62 66 69 72 73 74 73 73 67 66
4 3 4 9 4 2 8 5 5 3 3 5 5 6 14 18 16 20 36 30 18 13 13 16 22 26 29 31 36 39 41 45 49 52 57 61 64 66 67 70 72 75 75 71
6 4 6 3 2 4 8 8 6 5 5 4 10 10 9 13 23 10 36 36 23 14 11 15 21 25 29 29 31 33 37 41 45 48 52 55 58 61 66 71 76 78 79 80
2 4 2 3 7 3 7 8 6 7 6 8 3 2 18 16 10 23 40 42 27 17 12 15 21 26 30 32 33 33 35 38 42 45 48 51 53 54 58 63 68 72 77 81
10 7 1 3 3 10 5 10 9 13 6 4 5 12 12 9 17 34 43 34 25 18 17 17 23 28 35 37 35 35 35 38 41 43 44 47 49 50 52 54 57 61 66 71
9 2 2 9 4 3 4 3 7 12 5 7 8 14 11 8 7 19 27 28 27 22 23 21 22 28 35 39 37 36 34 37 40 42 44 46 48 48 49 50 53 56 59 64
7 8 2 1 3 4 6 7 7 5 4 7 8 10 12 14 19 16 24 37 30 25 26 24 28 32 37 40 39 38 37 37 39 41 45 47 48 48 48 48 50 53 57 62
6 6 2 7 9 12 2 1 4 5 8 10 4 12 12 15 24 25 36 42 33 30 34 28 32 33 37 40 40 41 41 41 40 42 46 49 49 48 47 48 49 52 55 60
7 9 6 11 2 4 6 11 9 8 10 6 4 14 8 8 15 36 32 37 37 35 34 34 33 31 34 35 36 43 46 45 44 44 48 51 51 49 47 49 52 54 56 59
8 3 5 9 9 9 3 8 7 8 6 10 11 11 2 8 14 30 28 15 18 25 33 33 30 30 25 29 37 45 53 53 48 47 51 52 51 49 48 51 52 55 59 62
7 5 11 12 9 9 5 6 10 12 7 7 20 8 11 12 14 13 11 22 34 33 26 26 27 24 23 29 37 47 54 57 52 49 54 55 52 50 49 51 53 56 61 67
8 7 3 7 8 5 12 10 17 21 25 18 18 29 15 11 19 29 39 28 19 21 25 29 29 27 27 34 43 52 53 55 53 52 56 54 52 53 51 51 54 57 61 65
6 2 5 9 5 14 15 20 22 38 40 40 43 60 21 50 53 49 22 17 20 21 26 29 35 36 39 46 61 57 51 50 52 54 58 56 57 57 53 53 56 59 64 68
10 9 6 10 11 13 19 27 41 16 11 43 29 38 10 16 13 13 17 25 34 38 40 44 49 45 41 56 56 54 45 49 56 61 60 59 61 57 54 56 58 61 66 70
12 10 6 6 7 4 12 9 14 39 29 34 20 19 11 13 10 26 32 32 35 36 37 38 40 40 54 57 52 49 49 56 61 62 59 61 59 56 56 57 59 62 67 71
13 8 1 6 7 17 17 7 12 15 17 37 41 38 38 37 28 27 21 22 20 26 34 41 44 57 62 52 52 51 55 59 63 62 58 59 58 57 57 58 60 64 69 72
10 8 8 5 9 15 11 6 13 9 12 16 46 30 25 16 1 9 23 23 35 39 46 52 61 65 58 55 50 54 58 61 67 62 56 57 57 55 56 58 61 64 69 72
8 4 25 10 9 20 23 13 14 10 14 8 35 28 25 11 21 27 29 36 42 45 51 53 58 62 60 57 57 61 62 65 60 56 54 54 54 53 53 57 61 67 71 69
19 21 11 9 7 22 26 16 13 13 13 27 31 21 22 32 32 33 36 42 45 49 52 53 60 63 60 58 63 64 61 59 57 54 53 52 50 50 52 58 62 65 64 65
8 18 14 26 19 11 60 17 46 17 36 24 23 30 28 36 38 36 44 49 51 59 61 60 59 62 56 59 60 58 58 56 51 47 46 44 45 48 54 59 61 59 55 54
13 31 6 7 13 34 43 57 53 38 40 44 46 50 49 45 41 43 48 52 62 66 68 67 63 62 61 59 57 57 55 49 45 42 40 42 47 50 52 52 51 52 49 49
12 21 11 12 19 33 35 41 54 60 56 57 48 39 35 33 41 46 53 58 65 68 71 74 68 64 62 58 59 58 51 45 42 42 42 45 49 51 48 45 43 44 41 42
22 15 12 20 23 33 23 22 15 12 16 23 29 34 35 35 43 49 61 72 74 77 75 65 62 60 58 60 61 56 47 43 42 43 44 47 48 44 42 43 38 30 37 39
Wind_Direction_850mb
36 68 96 109 348 49 96 95 113 124 227 39 191 177 194 180 178 153 153 86 65 29 7 7 8 11 19 23 21 19 17 17 14 12 9 8 11 14 12 7 0 351 340 328
31 104 216 301 330 69 47 112 58 65 165 169 237 259 234 188 190 186 193 165 91 352 4 8 10 12 16 17 21 22 21 19 18 17 16 14 12 11 14 12 7 2 356 345
114 167 219 111 53 83 42 102 103 201 318 226 309 287 194 203 184 197 204 176 227 332 348 355 5 11 13 13 14 15 17 18 19 17 14 12 12 12 8 8 11 8 1 358
92 243 190 104 88 329 112 324 130 39 44 186 109 258 248 192 197 199 209 195 223 293 325 337 349 0 7 10 8 9 11 12 14 14 15 15 15 12 10 8 5 7 6 358
210 111 53 77 127 3 151 153 114 53 50 38 219 103 265 157 214 217 212 194 214 268 306 323 332 342 351 359 3 3 4 5 8 9 10 10 11 10 7 6 5 4 5 5
105 42 55 109 140 75 130 109 71 53 64 15 218 157 259 186 212 182 193 188 202 240 278 303 318 328 335 345 353 357 359 359 0 2 4 4 5 4 3 4 4 3 2 2
33 39 64 66 89 34 61 86 24 5 6 224 70 64 247 223 201 172 173 180 196 217 246 277 309 318 327 333 340 347 352 355 355 356 357 359 359 0 1 2 1 0 359 0
150 299 74 21 93 162 129 149 156 194 200 233 334 235 257 223 125 170 178 179 197 214 230 280 313 317 321 326 328 334 341 349 351 351 351 351 352 355 357 357 357 359 358 357
124 123 52 49 45 77 232 182 169 99 54 51 225 287 316 77 110 151 172 190 209 218 236 282 309 309 309 317 320 323 330 340 344 345 346 344 345 347 350 351 351 352 353 354
187 86 9 170 76 43 140 185 83 2 122 260 274 276 238 209 211 201 203 210 221 231 245 273 297 308 314 315 320 318 321 326 334 339 340 339 337 339 342 344 346 347 348 348
134 97 167 53 203 178 109 145 36 119 152 180 243 255 217 213 201 200 212 217 229 236 237 271 293 297 309 310 314 318 317 314 320 327 333 333 331 331 334 337 340 342 343 343
210 131 150 221 140 37 164 197 158 132 237 233 149 271 267 175 191 195 210 224 237 230 254 279 283 287 300 307 312 319 317 308 310 317 325 326 325 324 326 330 333 337 339 340
215 304 50 338 351 357 188 207 185 127 102 214 149 255 197 145 144 160 172 197 238 253 267 269 268 286 298 310 307 308 308 308 306 310 318 319 319 318 319 324 328 332 335 337
118 91 167 190 191 127 192 248 196 134 134 203 228 245 252 211 201 183 187 283 277 275 276 269 273 279 296 309 306 305 302 301 302 304 314 315 314 313 314 318 323 327 331 334
105 184 134 267 232 186 206 189 201 205 209 195 244 236 214 214 217 226 304 293 281 283 277 268 266 276 288 310 318 313 305 297 297 302 310 309 309 309 309 312 316 321 325 329
5 234 88 305 283 226 255 217 219 228 233 250 260 275 263 269 271 275 272 274 285 280 266 253 261 271 288 309 318 318 309 294 293 299 306 304 304 305 305 308 313 317 321 325
135 129 91 265 339 318 288 214 207 211 208 223 234 247 246 275 260 239 261 273 282 282 275 270 274 275 293 310 314 312 307 297 295 300 300 299 301 302 303 306 310 315 319 322
136 116 107 230 10 293 255 178 176 213 238 222 253 244 196 208 220 286 282 279 284 284 280 278 277 279 299 308 307 305 296 291 297 299 298 298 300 300 301 304 309 313 317 320
143 119 108 161 201 302 289 167 156 165 267 222 226 242 240 257 283 269 281 283 295 302 300 294 285 288 300 297 303 296 293 297 299 300 300 297 297 297 299 303 307 313 315 318
161 88 135 103 174 228 238 235 160 131 287 236 205 228 218 177 212 250 307 285 296 296 296 290 291 294 292 295 300 292 293 297 296 297 295 292 293 295 298 302 308 312 315 317
148 212 216 203 235 281 248 192 154 94 246 175 183 201 193 181 240 290 289 287 284 285 291 292 290 290 289 290 292 289 294 294 296 291 289 288 291 293 296 302 308 312 315 317
172 172 190 161 196 273 172 127 188 218 178 157 160 180 233 255 272 271 277 288 293 292 297 298 294 289 290 286 289 292 293 296 291 288 286 288 290 292 297 302 308 310 312 314
234 197 181 189 206 225 183 210 219 215 181 188 229 262 277 268 272 288 293 297 294 299 299 303 294 293 287 286 288 287 293 290 288 283 284 286 289 294 299 304 307 309 313 315
245 201 216 131 227 232 227 233 240 228 243 263 276 283 283 272 282 293 294 294 296 297 300 303 300 289 288 290 285 286 289 285 281 280 283 287 291 295 299 302 306 309 315 316
193 144 184 271 281 278 265 250 250 258 274 275 275 273 278 283 286 293 295 294 294 296 296 296 295 289 286 287 282 285 283 280 277 279 284 288 291 297 301 304 309 311 313 316
197 182 201 245 234 242 246 273 235 224 227 244 259 265 264 277 286 292 291 293 295 296 296 292 287 285 284 284 281 279 277 273 274 281 287 292 295 299 305 307 306 304 308 311